GEC754 KMCO-KJAX

Flight info

Callsign GEC754
Flight time 0h 30m
Altitude 14000
Route WORMS/N0395F130 GUANO MEAAT QUBEN2
Aircraft B77L/H-SDE1E2E3FGHIJ2J3J4J5M1RWXY/LB1D1

Departure

Time 2026-05-06 17:42
Airport Orlando International Airport (KMCO)

Arrival

Time 2026-05-06 18:13
Airport Jacksonville International Airport (KJAX)
Time Latitude Longitude Altitude Speed Heading
2026-05-06 17:14 28.43520 -81.33012 111 ft 0 kts 64°
2026-05-06 17:36 28.43527 -81.32994 109 ft 9 kts 64°
2026-05-06 17:37 28.43590 -81.32931 108 ft 14 kts
2026-05-06 17:37 28.43621 -81.32929 110 ft 3 kts
2026-05-06 17:37 28.43682 -81.32929 107 ft 11 kts 359°
2026-05-06 17:37 28.43769 -81.32930 106 ft 13 kts 359°
2026-05-06 17:38 28.43862 -81.32932 106 ft 13 kts 358°
2026-05-06 17:38 28.43955 -81.32930 107 ft 13 kts 14°
2026-05-06 17:38 28.44037 -81.32882 107 ft 13 kts 28°
2026-05-06 17:38 28.44136 -81.32862 107 ft 18 kts 360°
2026-05-06 17:39 28.44260 -81.32863 107 ft 18 kts 359°
2026-05-06 17:39 28.44385 -81.32865 111 ft 18 kts 359°
2026-05-06 17:39 28.44509 -81.32867 112 ft 18 kts 359°
2026-05-06 17:39 28.44631 -81.32868 111 ft 18 kts 359°
2026-05-06 17:40 28.44758 -81.32868 112 ft 18 kts
2026-05-06 17:40 28.44815 -81.32765 114 ft 18 kts 89°
2026-05-06 17:40 28.44820 -81.32613 108 ft 20 kts 89°
2026-05-06 17:40 28.44822 -81.32457 109 ft 20 kts 89°
2026-05-06 17:41 28.44823 -81.32306 108 ft 19 kts 89°
2026-05-06 17:41 28.44779 -81.32231 106 ft 12 kts 174°
2026-05-06 17:41 28.44741 -81.32230 107 ft 0 kts 179°
2026-05-06 17:41 28.44718 -81.32229 107 ft 20 kts 179°
2026-05-06 17:42 28.44242 -81.32224 112 ft 115 kts 179°
2026-05-06 17:42 28.43157 -81.32213 184 ft 185 kts 179°
2026-05-06 17:42 28.41795 -81.32197 959 ft 193 kts 178°
2026-05-06 17:42 28.40480 -81.32192 2164 ft 189 kts 183°
2026-05-06 17:43 28.39190 -81.32717 2596 ft 214 kts 217°
2026-05-06 17:43 28.38259 -81.34151 2870 ft 244 kts 250°
2026-05-06 17:43 28.38022 -81.36100 3482 ft 256 kts 268°
2026-05-06 17:43 28.37961 -81.38162 4277 ft 266 kts 268°
2026-05-06 17:44 28.37907 -81.40287 5146 ft 271 kts 272°
2026-05-06 17:44 28.38352 -81.42377 5982 ft 277 kts 298°
2026-05-06 17:44 28.39604 -81.44032 6921 ft 280 kts 326°
2026-05-06 17:44 28.41381 -81.44896 7829 ft 280 kts 349°
2026-05-06 17:45 28.43331 -81.45157 8673 ft 285 kts 356°
2026-05-06 17:45 28.45334 -81.45278 9511 ft 290 kts 358°
2026-05-06 17:45 28.47363 -81.45371 10385 ft 294 kts 358°
2026-05-06 17:45 28.49467 -81.45460 10844 ft 315 kts 358°
2026-05-06 17:46 28.51758 -81.45550 11076 ft 343 kts 358°
2026-05-06 17:46 28.54232 -81.45642 11314 ft 367 kts 358°
2026-05-06 17:46 28.56824 -81.45732 12000 ft 378 kts 358°
2026-05-06 17:46 28.59477 -81.45820 12874 ft 383 kts 358°
2026-05-06 17:47 28.62153 -81.45903 13795 ft 387 kts 358°
2026-05-06 17:47 28.64862 -81.45955 14688 ft 391 kts
2026-05-06 17:47 28.67577 -81.45670 15508 ft 396 kts
2026-05-06 17:47 28.70285 -81.45063 16292 ft 401 kts 10°
2026-05-06 17:48 28.73037 -81.44411 17061 ft 406 kts 10°
2026-05-06 17:48 28.75817 -81.43758 17797 ft 410 kts 10°
2026-05-06 17:48 28.78637 -81.43106 18009 ft 420 kts
2026-05-06 17:48 28.81545 -81.42445 18011 ft 429 kts
2026-05-06 17:49 28.84472 -81.41785 18012 ft 430 kts
2026-05-06 17:49 28.87410 -81.41124 18002 ft 430 kts
2026-05-06 17:49 28.90346 -81.40465 18013 ft 430 kts
2026-05-06 17:49 28.93287 -81.39804 18002 ft 431 kts
2026-05-06 17:50 28.96227 -81.39143 18009 ft 431 kts
2026-05-06 17:50 28.99135 -81.38539 18001 ft 430 kts
2026-05-06 17:50 29.02150 -81.38258 17993 ft 429 kts
2026-05-06 17:50 29.05124 -81.38316 17996 ft 428 kts 354°
2026-05-06 17:51 29.08086 -81.38654 18018 ft 427 kts 353°
2026-05-06 17:51 29.11048 -81.38964 18008 ft 427 kts 355°
2026-05-06 17:51 29.13980 -81.39118 18001 ft 428 kts 356°
2026-05-06 17:51 29.16995 -81.39197 18000 ft 428 kts 357°
2026-05-06 17:52 29.19980 -81.39255 18007 ft 428 kts 357°
2026-05-06 17:52 29.22951 -81.39317 18002 ft 428 kts 357°
2026-05-06 17:52 29.25929 -81.39392 17994 ft 428 kts 357°
2026-05-06 17:52 29.28905 -81.39474 17990 ft 427 kts 357°
2026-05-06 17:53 29.31837 -81.39562 18004 ft 427 kts 356°
2026-05-06 17:53 29.34841 -81.39655 17993 ft 427 kts 356°
2026-05-06 17:53 29.37774 -81.39744 18005 ft 427 kts 357°
2026-05-06 17:53 29.40776 -81.39836 18010 ft 427 kts 357°
2026-05-06 17:54 29.43714 -81.39926 18012 ft 427 kts 356°
2026-05-06 17:54 29.46684 -81.40018 18003 ft 427 kts 357°
2026-05-06 17:54 29.49660 -81.40109 18003 ft 427 kts 357°
2026-05-06 17:54 29.52618 -81.40220 17998 ft 421 kts 353°
2026-05-06 17:55 29.55450 -81.40992 18000 ft 416 kts 336°
2026-05-06 17:55 29.57915 -81.42632 17992 ft 405 kts 321°
2026-05-06 17:55 29.59919 -81.44821 17785 ft 397 kts 314°
2026-05-06 17:55 29.60653 -81.45709 17576 ft 397 kts 313°
2026-05-06 17:56 29.60843 -81.45941 17523 ft 397 kts 313°
2026-05-06 17:56 29.62733 -81.48244 17012 ft 395 kts 314°
2026-05-06 17:56 29.64622 -81.50512 16480 ft 391 kts 314°
2026-05-06 17:57 29.66516 -81.52748 15930 ft 387 kts 314°
2026-05-06 17:57 29.68394 -81.54952 15380 ft 384 kts 315°
2026-05-06 17:57 29.70268 -81.57118 14846 ft 381 kts 315°
2026-05-06 17:57 29.72129 -81.59260 14317 ft 377 kts 315°
2026-05-06 17:58 29.73974 -81.61389 13795 ft 374 kts 315°
2026-05-06 17:58 29.75843 -81.63433 13248 ft 365 kts 323°
2026-05-06 17:58 29.78069 -81.64770 12825 ft 360 kts 341°
2026-05-06 17:58 29.80526 -81.65299 12533 ft 365 kts 354°
2026-05-06 17:59 29.83098 -81.65501 12208 ft 373 kts 355°
2026-05-06 17:59 29.85686 -81.65682 11859 ft 373 kts 355°
2026-05-06 17:59 29.88272 -81.65885 11541 ft 370 kts 355°
2026-05-06 17:59 29.90815 -81.66105 11178 ft 363 kts 355°
2026-05-06 18:00 29.93299 -81.66327 10848 ft 354 kts 355°
2026-05-06 18:00 29.95723 -81.66592 10535 ft 346 kts 353°
2026-05-06 18:00 29.98086 -81.66929 10205 ft 338 kts 352°
2026-05-06 18:00 30.00392 -81.67288 9915 ft 331 kts 352°
2026-05-06 18:01 30.02630 -81.67645 9809 ft 317 kts 352°
2026-05-06 18:01 30.04788 -81.67991 9564 ft 309 kts 352°
2026-05-06 18:01 30.06854 -81.68404 9412 ft 296 kts 346°
2026-05-06 18:01 30.08814 -81.69007 9183 ft 288 kts 343°
2026-05-06 18:02 30.10722 -81.69643 8671 ft 282 kts 343°
2026-05-06 18:02 30.12581 -81.70271 8169 ft 276 kts 343°
2026-05-06 18:02 30.14417 -81.70823 7653 ft 270 kts 353°
2026-05-06 18:02 30.16237 -81.70584 7149 ft 262 kts 23°
2026-05-06 18:03 30.17764 -81.69568 6923 ft 246 kts 33°
2026-05-06 18:03 30.19164 -81.68511 6614 ft 236 kts 33°
2026-05-06 18:03 30.20525 -81.67482 6339 ft 235 kts 33°
2026-05-06 18:03 30.21897 -81.66443 6119 ft 237 kts 33°
2026-05-06 18:04 30.23274 -81.65395 5935 ft 236 kts 33°
2026-05-06 18:04 30.24615 -81.64375 5834 ft 233 kts 33°
2026-05-06 18:04 30.25968 -81.63346 5642 ft 234 kts 33°
2026-05-06 18:04 30.27322 -81.62316 5459 ft 230 kts 33°
2026-05-06 18:05 30.28622 -81.61325 5271 ft 218 kts 33°
2026-05-06 18:05 30.29862 -81.60383 5125 ft 211 kts 33°
2026-05-06 18:05 30.31095 -81.59455 4941 ft 212 kts 33°
2026-05-06 18:05 30.32322 -81.58526 4759 ft 209 kts 33°
2026-05-06 18:06 30.33536 -81.57608 4578 ft 207 kts 33°
2026-05-06 18:06 30.34742 -81.56702 4411 ft 207 kts 33°
2026-05-06 18:06 30.35943 -81.55798 4231 ft 206 kts 33°
2026-05-06 18:06 30.37144 -81.54891 4058 ft 206 kts 33°
2026-05-06 18:07 30.38344 -81.53990 3882 ft 205 kts 33°
2026-05-06 18:07 30.39540 -81.53089 3725 ft 205 kts 33°
2026-05-06 18:07 30.40743 -81.52183 3557 ft 207 kts 33°
2026-05-06 18:07 30.41935 -81.51296 3390 ft 198 kts 33°
2026-05-06 18:08 30.43122 -81.50612 3159 ft 186 kts 10°
2026-05-06 18:08 30.43959 -81.50644 3006 ft 183 kts 342°
2026-05-06 18:08 30.45107 -81.51279 2899 ft 186 kts 331°
2026-05-06 18:08 30.46271 -81.51972 2724 ft 189 kts 332°
2026-05-06 18:09 30.47424 -81.52660 2518 ft 185 kts 332°
2026-05-06 18:09 30.48556 -81.53332 2348 ft 181 kts 332°
2026-05-06 18:09 30.49670 -81.53986 2122 ft 179 kts 332°
2026-05-06 18:09 30.50786 -81.54638 1953 ft 180 kts 332°
2026-05-06 18:10 30.51901 -81.55287 1787 ft 177 kts 332°
2026-05-06 18:10 30.52830 -81.56093 1666 ft 160 kts 299°
2026-05-06 18:10 30.53021 -81.57311 1653 ft 157 kts 266°
2026-05-06 18:10 30.52904 -81.58584 1538 ft 161 kts 259°
2026-05-06 18:11 30.52662 -81.59838 1333 ft 158 kts 256°
2026-05-06 18:11 30.52354 -81.61041 1109 ft 153 kts 251°
2026-05-06 18:11 30.51999 -81.62210 888 ft 154 kts 250°
2026-05-06 18:11 30.51635 -81.63356 684 ft 148 kts 250°
2026-05-06 18:12 30.51288 -81.64482 506 ft 149 kts 251°
2026-05-06 18:12 30.50954 -81.65614 322 ft 149 kts 251°
2026-05-06 18:12 30.50617 -81.66748 134 ft 148 kts 250°
2026-05-06 18:12 30.50286 -81.67827 43 ft 131 kts 250°
2026-05-06 18:13 30.50037 -81.68641 42 ft 81 kts 250°
2026-05-06 18:13 30.49908 -81.69064 42 ft 26 kts 250°
2026-05-06 18:13 30.49816 -81.69194 41 ft 19 kts 201°
2026-05-06 18:13 30.49754 -81.69202 41 ft 0 kts 180°
2026-05-06 18:14 30.49741 -81.69201 41 ft 9 kts 175°
2026-05-06 18:14 30.49617 -81.69132 40 ft 19 kts 149°
2026-05-06 18:15 30.49505 -81.69055 40 ft 19 kts 150°
2026-05-06 18:15 30.49390 -81.68988 40 ft 19 kts 175°
2026-05-06 18:15 30.49261 -81.69011 40 ft 19 kts 190°
2026-05-06 18:15 30.49133 -81.69040 40 ft 19 kts 198°
2026-05-06 18:16 30.49040 -81.69146 38 ft 19 kts 231°
2026-05-06 18:16 30.48958 -81.69266 39 ft 19 kts 232°
2026-05-06 18:16 30.48872 -81.69320 39 ft 15 kts 150°
2026-05-06 18:16 30.48803 -81.69232 39 ft 15 kts 130°
2026-05-06 18:17 30.48736 -81.69141 39 ft 15 kts 131°
2026-05-06 18:17 30.48667 -81.69049 39 ft 15 kts 130°
2026-05-06 18:17 30.48600 -81.68958 39 ft 15 kts 130°
2026-05-06 18:17 30.48532 -81.68867 39 ft 15 kts 130°
2026-05-06 18:18 30.48464 -81.68776 40 ft 15 kts 130°
2026-05-06 18:18 30.48397 -81.68686 39 ft 15 kts 130°
2026-05-06 18:18 30.48330 -81.68594 40 ft 15 kts 130°
2026-05-06 18:18 30.48306 -81.68488 39 ft 15 kts 69°
2026-05-06 18:19 30.48340 -81.68373 40 ft 15 kts 71°
2026-05-06 18:19 30.48375 -81.68259 40 ft 15 kts 71°
2026-05-06 18:19 30.48413 -81.68154 39 ft 13 kts 44°
2026-05-06 18:19 30.48495 -81.68128 40 ft 11 kts 11°
2026-05-06 18:20 30.48556 -81.68120 40 ft 7 kts 343°
2026-05-06 18:20 30.48577 -81.68172 40 ft 7 kts 281°
2026-05-06 18:20 30.48579 -81.68184 40 ft 0 kts 280°